{"data":{"norad_id":47883,"intl_designator":"2021-021Z","name":"STARLINK-2342","alt_names":[],"object_type":"PAYLOAD","status":"ACTIVE","operator":null,"country":"US","launch_date":"2021-03-14","launch_site_code":"AFETR","launch_vehicle":null,"mission":null,"orbit_class":"UNKNOWN","rcs_meters":null,"size_class":null,"mass_kg":null,"dimensions":null,"purposes":["comms"],"wikipedia_slug":null,"has_3d_model":false,"image_url":null,"decayed_at":null,"tle_current":{"epoch":"2026-05-24T18:05:08.362464Z","epoch_age_seconds":99513,"freshness":"FRESH","line1":"1 47883U 21021Z   26144.75356901  .00074459  00000+0  10457-2 0  9996","line2":"2 47883  53.1559 263.7009 0004395 291.2238  68.8305 15.56064717288229","mean_motion":15.56064717,"eccentricity":0.0004395,"inclination_deg":53.1559,"raan_deg":263.7009,"arg_perigee_deg":291.2238,"mean_anomaly_deg":68.8305,"bstar":0.0010457,"rev_number":28822,"period_min":92.54113818455,"perigee_km":396.08081553648,"apogee_km":402.03797116623,"semimajor_km":6777.1963933514,"source":"CELESTRAK","updated_at":"2026-05-25T13:38:16.611006Z"}}}